Torna al catalogo

SL-3 R/B

AttivoPO
NORAD 12465·ROCKET BODY·🇷🇺 Russia

Lanciato May 19, 1981 da Plesetsk Cosmodrome

Loading…

Prossimi Passaggi (prossime 24 ore)

TLE

AggiornatoSource: Space-Track

Epoca: Sep 14, 2026, 13:28 UTC

1 12465U 81046B   26257.56180320  .00009900  00000-0  20185-3 0  9991
2 12465  81.2283  62.2456 0017958  79.6549 280.6719 15.45886241467575

Traccia SL-3 R/B in tempo reale con AllMySat

Download on the App Store